Location: Unspecified
(42.1900°N, 71.3291°W)
Time: 14:47:36
(UTC-04:00)

Resurs 1-4 Rocket - Visible Passes

Search period start: 25 September 2017 00:00
Search period end: 05 October 2017 00:00
Orbit: 800 x 814 km, 98.5° (Epoch: 25 September)

Date Brightness Start Highest point End Pass type
(mag) Time Alt. Az. Time Alt. Az. Time Alt. Az.
25 Sep 4.6 02:22:57 10° NNE 02:24:20 17° NE 02:24:20 17° NE visible
25 Sep 3.7 04:02:59 10° N 04:05:24 23° NNW 04:05:24 23° NNW visible
26 Sep 5.0 01:59:01 10° NE 01:59:21 11° NE 01:59:21 11° NE visible
26 Sep 3.7 03:38:02 10° N 03:40:26 26° N 03:40:26 26° N visible
27 Sep 3.9 03:13:20 10° N 03:15:27 25° N 03:15:27 25° N visible
27 Sep 4.2 04:55:53 10° NW 04:56:31 11° NW 04:56:31 11° NW visible
28 Sep 4.3 02:48:48 10° NNE 02:50:28 21° NNE 02:50:28 21° NNE visible
28 Sep 4.0 04:29:49 10° NNW 04:31:33 16° NW 04:31:33 16° NW visible
29 Sep 4.7 02:24:29 10° NNE 02:25:29 15° NE 02:25:29 15° NE visible
29 Sep 3.9 04:04:34 10° N 04:06:34 20° NNW 04:06:34 20° NNW visible
30 Sep 3.9 03:39:38 10° N 03:41:35 22° N 03:41:35 22° N visible
01 Oct 4.2 03:14:54 10° N 03:16:37 21° N 03:16:37 21° N visible
01 Oct 4.3 04:57:40 10° NW 04:57:41 10° NW 04:57:41 10° NW visible
02 Oct 4.5 02:50:21 10° NNE 02:51:38 18° NNE 02:51:38 18° NNE visible
02 Oct 4.1 04:31:28 10° NNW 04:32:42 14° NNW 04:32:42 14° NNW visible
03 Oct 4.9 02:26:02 10° NNE 02:26:39 13° NNE 02:26:39 13° NNE visible
03 Oct 4.1 04:06:11 10° N 04:07:44 17° NNW 04:07:44 17° NNW visible
04 Oct 4.1 03:41:13 10° N 03:42:44 19° N 03:42:44 19° N visible
